User: anonymous   Login
Location: Mentone
(34.5413°N, 85.5351°W)
Time: 02:48:55
(UTC-05:00)
Language:

A-11 Canister half - Orbit

View from above orbital plane
View from above orbital plane
View from above satellite
View from above satellite

Ground track
Ground track

The orbit data is extracted from the following two-line orbital elements,

1 00053U 60009E   15091.19549891 -.00000084  00000-0  00000+0 0  9997
2 00053 047.2784 011.0023 0097265 215.1106 144.3245 12.17162159436634
Epoch (UTC): 01 April 2015 04:41:31
Eccentricity: 0.0097265
inclination: 47.2784°
perigee height: 1527 km
apogee height: 1682 km
right ascension of ascending node: 11.0023°
argument of perigee: 215.1106°
revolutions per day: 12.17162159
mean anomaly at epoch: 144.3245°
orbit number at epoch: 43663

The dashed part of the orbit path shows where the satellite is in the earth's shadow,  

DLR